DELTA 1 DEB, 7182

Orbit data source: Space-Track

DELTA 1 DEB, 7182 is space debris in SSO originally from a launch on Tue, 06 Nov 1973 UTC launched from the Air Force Western Test Range (AFWTR). Debris objects in space refer to the collection of defunct objects orbiting the Earth. Examples of debris include non-operational satellites, rocket bodies, and fragments generated from explosions, collisions, or faulty payload assembly.

Loading next visibility...
Identifier
7182, 1973-086ET
Orbit
SSO
Country
Flag of USUS
Related business
Manufacturer
Unknown
Mission
Spacecraft
Bus & Motor
Unknown
Mass
Unknown
Launch date (UTC)
1973-11-06 (53 years ago)
Launch vehicle
Unknown
Launch site
Air Force Western Test Range (AFWTR)
Object type
Payload
Rocket body
Debris
Shape & HBR
Unknown shape, 0.1 m
Radar Cross Section
Medium (>0.1 m² and <1 m²)

Expand to show TLE details & history
Last TLE update: 21 hours ago

TLE from 21 hours ago
0 DELTA 1 DEB
1 07182U 73086ET  26206.45017814  .00000318  00000-0  13333-2 0  9995
2 07182 102.5311  15.7209 0335810 159.1453 232.7899 12.77375306692812
Epoch: 2026-07-25T10:48Z
TLE epoch observation values (Epoch: 2026-07-25T10:48:15.391Z)
Latitude
28.23762°
Longitude
-96.32751°
Altitude
1,517.599 km
Speed
7.034 km/s
True Right ascension
00h 35m 35s
True Declination
28° 06' 30"
Sunlit
Object was in daylight at epoch
Visualization orbit readout
Latitude
Unknown
Longitude
Unknown
Altitude
Unknown
Speed
Unknown
Apparent Right ascension
Unknown
Apparent Declination
Unknown
Sunlit
N/A
Visualization observer readout
Local Sidereal Time
21:18:08
Azimuth
Unknown
Elevation
Unknown
Doppler factor
Unknown
Orbital elements
Apogee altitude
1,609.101 km
Perigee altitude
1,090.091 km
Semi-major axis
7,727.733 km
Eccentricity
0.03358
Inclination
102.5311°
RAAN
15.7209°
Arg. of periapsis
159.1453°
True anomaly
229.80248°
Mean anomaly
232.7899°
Eccentric anomaly
231.28855°
Mean motion
3.19496 °/min
Orbital period
112.68 mins
BSTAR
0.0013333
Loading maneuver chart data...
Computing Atmospheric mass density...
Loading historical data...
Loading historical data...
Loading historical data...
Loading historical data...
Loading historical data...
Loading historical data...
Loading historical data...

Documentation

Showing up to 5 results
|